Stations météo

réclame
Mon MeteoGroup
St-Hubert, Belgique (6476): Température de l'air & dewpoint: 14.07.2018 22:00:00 - 20.07.2018 22:00:00 (CEST)St-Hubert, Belgique (6476): reduced air pressure: 14.07.2018 22:00:00 - 20.07.2018 22:00:00 (CEST)St-Hubert, Belgique (6476): visibility: 14.07.2018 22:00:00 - 20.07.2018 22:00:00 (CEST)
Date & Time tt [°C] td [°C] ppp [hPa] vv [km]
20.07.2018 22:00:00 18,0 7,8 1012,5 35
20.07.2018 21:00:00 18,9 8,4 1012,1 28
20.07.2018 20:00:00 19,4 9,8 1011,8 40
20.07.2018 19:00:00 20,0 12,9 1011,9 27
20.07.2018 18:00:00 19,8 12,2 1012,4 30
20.07.2018 17:00:00 19,8 12,6 1012,9 35
20.07.2018 16:00:00 20,9 14,3 1012,8 30
20.07.2018 15:00:00 20,9 12,9 1013,1 29
20.07.2018 14:00:00 23,4 10,7 1012,4 35
20.07.2018 13:00:00 24,2 9,8 1012,5 30
20.07.2018 12:00:00 23,7 10,3 1013,0 27
20.07.2018 11:00:00 22,1 9,0 1013,4 30
20.07.2018 10:00:00 20,6 10,0 1013,8 30
20.07.2018 09:00:00 18,8 10,7 1014,3 25
20.07.2018 08:00:00 16,6 10,6 1014,8 17
20.07.2018 07:00:00 15,1 10,3 1015,0 22
20.07.2018 06:00:00 15,1 10,2 1015,3 22
20.07.2018 05:00:00 15,6 10,0 1015,5 27
20.07.2018 04:00:00 15,6 10,0 1015,9 30
20.07.2018 03:00:00 15,7 9,9 1016,3 35
20.07.2018 02:00:00 16,4 10,0 1016,6 35
20.07.2018 01:00:00 16,3 9,7 1017,0 45
20.07.2018 00:00:00 17,2 9,4 1017,0 45
19.07.2018 23:00:00 18,6 9,3 1016,6 45
19.07.2018 22:00:00 20,3 8,8 1016,2 40
19.07.2018 21:00:00 22,1 8,8 1015,7 40
19.07.2018 20:00:00 23,7 8,9 1015,1 20
19.07.2018 19:00:00 24,2 8,4 1015,1 30
19.07.2018 18:00:00 24,7 8,7 1015,3 30
19.07.2018 17:00:00 24,2 9,0 1015,8 35
19.07.2018 16:00:00 23,2 8,0 1016,4 35
19.07.2018 15:00:00 23,6 8,8 1016,5 30
19.07.2018 14:00:00 23,4 9,1 1016,9 24
19.07.2018 13:00:00 21,7 8,4 1017,4 29
19.07.2018 12:00:00 21,7 10,1 1017,6 30
19.07.2018 11:00:00 20,7 8,6 1018,0 35
19.07.2018 10:00:00 20,6 8,6 1018,0 35
19.07.2018 09:00:00 20,0 8,4 1018,1 35
19.07.2018 08:00:00 17,2 9,7 1018,8 28
19.07.2018 07:00:00 14,8 9,2 1019,0 35
19.07.2018 06:00:00 11,2 8,9 1019,6 27
19.07.2018 05:00:00 10,9 8,7 1020,0 29
19.07.2018 04:00:00 12,7 8,9 1019,6 30
19.07.2018 03:00:00 14,1 9,6 1019,6 30
19.07.2018 02:00:00 14,5 9,9 1019,7 40
19.07.2018 01:00:00 14,6 8,6 1019,7 45
19.07.2018 00:00:00 15,6 8,4 1019,0 45
18.07.2018 23:00:00 17,6 8,0 1018,4 45
18.07.2018 22:00:00 18,9 7,7 1017,8 45
18.07.2018 21:00:00 20,5 8,7 1017,3 35
18.07.2018 20:00:00 21,9 7,8 1017,0 40
18.07.2018 19:00:00 22,2 7,7 1016,8 35
18.07.2018 18:00:00 22,8 9,0 1016,9 30
18.07.2018 17:00:00 22,7 8,6 1017,3 30
18.07.2018 16:00:00 21,6 9,2 1017,8 35
18.07.2018 15:00:00 21,2 8,9 1018,0 40
18.07.2018 14:00:00 20,6 7,8 1018,4 35
18.07.2018 13:00:00 19,9 8,5 1018,6 40
18.07.2018 12:00:00 19,4 8,0 1018,8 40
18.07.2018 11:00:00 18,4 6,8 1019,2 30
18.07.2018 10:00:00 18,1 7,7 1019,1 45
18.07.2018 09:00:00 17,1 7,9 1019,0 45
18.07.2018 08:00:00 15,8 9,2 1018,9 45
18.07.2018 07:00:00 14,6 9,5 1019,1 45
18.07.2018 06:00:00 13,6 8,2 1019,3 45
18.07.2018 05:00:00 13,7 8,1 1019,1 45
18.07.2018 04:00:00 12,3 8,6 1019,8 45
18.07.2018 03:00:00 11,9 8,1 1019,8 45
18.07.2018 02:00:00 12,7 8,0 1019,7 45
18.07.2018 01:00:00 15,6 7,7 1019,1 45
18.07.2018 00:00:00 16,3 8,3 1018,8 45
17.07.2018 23:00:00 16,6 8,8 1018,5 45
17.07.2018 22:00:00 16,8 9,3 1017,9 45
17.07.2018 21:00:00 19,0 9,8 1017,1 40
17.07.2018 20:00:00 20,3 10,8 1016,3 35
17.07.2018 19:00:00 21,3 12,0 1015,9 30
17.07.2018 18:00:00 22,4 12,6 1015,5 35
17.07.2018 17:00:00 21,3 13,6 1015,8 35
17.07.2018 16:00:00 21,0 13,5 1016,0 30
17.07.2018 15:00:00 22,5 12,6 1015,6 35
17.07.2018 14:00:00 21,6 11,1 1016,0 30
17.07.2018 13:00:00 19,5 12,1 1016,6 40
17.07.2018 12:00:00 19,0 11,5 1016,4 35
17.07.2018 11:00:00 18,8 10,2 1016,2 30
17.07.2018 10:00:00 19,1 9,7 1015,7 35
17.07.2018 09:00:00 17,9 9,2 1015,6 30
17.07.2018 08:00:00 15,5 11,4 1015,8 25
17.07.2018 07:00:00 15,9 11,1 1015,2 23
17.07.2018 06:00:00 14,2 11,2 1015,5 20
17.07.2018 05:00:00 15,8 11,4 1015,0 30
17.07.2018 04:00:00 16,7 11,6 1014,6 40
17.07.2018 03:00:00 17,0 10,1 1014,6 45
17.07.2018 02:00:00 17,8 9,6 1014,3 45
17.07.2018 01:00:00 18,5 9,4 1014,2 45
17.07.2018 00:00:00 18,8 10,3 1014,0 45
16.07.2018 23:00:00 19,6 9,5 1013,7 45
16.07.2018 22:00:00 19,6 10,1 1013,2 45
16.07.2018 21:00:00 23,2 4,1 1011,9 40
16.07.2018 20:00:00 24,9 2,2 1011,0 35
16.07.2018 19:00:00 26,0 2,4 1010,7 35
16.07.2018 18:00:00 25,9 4,3 1010,8 40
16.07.2018 17:00:00 25,5 3,2 1011,1 35
16.07.2018 16:00:00 26,0 5,5 1011,1 40
16.07.2018 15:00:00 25,1 6,0 1011,7 35
16.07.2018 14:00:00 24,0 5,3 1012,4 40
16.07.2018 13:00:00 23,9 6,4 1012,6 35
16.07.2018 12:00:00 23,6 7,4 1012,9 30
16.07.2018 11:00:00 22,8 6,7 1013,1 35
16.07.2018 10:00:00 21,5 10,5 1013,3 30
16.07.2018 09:00:00 18,8 12,3 1014,0 40
16.07.2018 08:00:00 17,1 12,0 1014,3 35
16.07.2018 07:00:00 16,1 10,6 1014,5 45
16.07.2018 06:00:00 15,4 10,4 1014,8 45
16.07.2018 05:00:00 14,8 10,3 1014,9 45
16.07.2018 04:00:00 16,0 11,9 1014,9 45
16.07.2018 03:00:00 15,5 11,6 1015,2 45
16.07.2018 02:00:00 18,2 11,3 1014,9 40
16.07.2018 01:00:00 17,0 12,3 1015,3 45
16.07.2018 00:00:00 17,7 12,8 1015,2 45
15.07.2018 23:00:00 18,6 12,4 1015,1 45
15.07.2018 22:00:00 20,8 11,0 1014,2 40
15.07.2018 21:00:00 20,9 11,9 1013,8 45
15.07.2018 20:00:00 22,7 13,1 1013,1 30
15.07.2018 19:00:00 22,5 13,0 1013,4 27
15.07.2018 18:00:00 22,4 10,4 1013,6 40
15.07.2018 17:00:00 23,6 10,5 1013,4 35
15.07.2018 16:00:00 23,7 10,6 1013,9 40
15.07.2018 15:00:00 21,8 11,7 1014,8 30
15.07.2018 14:00:00 22,8 10,0 1015,1 30
15.07.2018 13:00:00 22,7 10,0 1015,5 30
15.07.2018 12:00:00 22,5 9,7 1016,0 30
15.07.2018 11:00:00 21,5 8,8 1016,3 30
15.07.2018 10:00:00 20,3 12,9 1016,5 30
15.07.2018 09:00:00 18,6 12,2 1016,9 30
15.07.2018 08:00:00 16,0 10,3 1017,3 30
15.07.2018 07:00:00 14,8 9,6 1017,4 35
15.07.2018 06:00:00 14,5 9,4 1017,7 45
15.07.2018 05:00:00 14,3 9,4 1018,0 45
15.07.2018 04:00:00 14,8 9,6 1018,1 45
15.07.2018 03:00:00 14,8 9,9 1018,3 45
15.07.2018 02:00:00 16,1 10,3 1018,3 40
15.07.2018 01:00:00 14,8 10,9 1018,7 40
15.07.2018 00:00:00 15,6 11,9 1018,6 35
14.07.2018 23:00:00 15,6 11,9 1018,5 35
14.07.2018 22:00:00 18,0 13,8 1017,7 35

tt = Température de l'air
td = dewpoint
ppp = reduced air pressure
vv = visibility

stations d'obs. à proximité